Location: Christchurch
(43.5330°S, 172.6330°E)
Time: 15:43:51
(UTC+12:00)

ISS - Pass Details

Date: 26 May 2021
Orbit: 417 x 422 km, 51.6° (Epoch: 22 June)

Event Time Altitude Azimuth Distance (km) Brightness Sun altitude
Exits shadow 05:48:55 72° 142° (SE) 458 -3.6 -21.0°
Drops below altitude 10° 05:52:04 10° 123° (ESE) 1,536 -0.3 -20.4°
Sets 05:54:11 0° 122° (ESE) 2,407 0.8 -20.0°
